Weather History for Canton, GA

Change the Weather History Date:

Tuesday, November 6, 2012

  Actual Average (KGVL) Record (KGVL)
Temperature  
Mean Temperature 46 °F 56 °F  
Max Temperature 51 °F 65 °F 80 °F (1938)
Min Temperature 42 °F 46 °F 24 °F (1939)
Degree Days  
Heating Degree Days 18 10  
Month to date heating degree days 54  
Since 1 July heating degree days 212  
Moisture  
Dew Point 36 °F    
Average Humidity 68    
Maximum Humidity 87    
Minimum Humidity 47    
Precipitation  
Precipitation 0.00 in 0.12 in 2.35 in (1977)
Month to date precipitation 0.66  
Snow  
Snow - - - ()
Month to date snowfall  
Since 1 July snowfall  
Since 1 September snowfall  
Snow Depth -    
Sea Level Pressure  
Sea Level Pressure 29.96 in    
Wind  
Wind Speed 5 mph ()    
Max Wind Speed 15 mph    
Max Gust Speed 23 mph    
Visibility 8.0 miles    
Events Rain    
T = Trace of Precipitation, MM = Missing Value Source: Averaged Metar Reports

Daily Weather History Graph

Daily Weather History Graph

Search for Another Location

Airport:

Trip Planner

Search our weather history database for the weather conditions in past years. The results will help you decide how hot, cold, wet, or windy it might be!

Date:

Astronomy

Nov. 06, 2012 Rise Set
Actual Time 7:02 AM EST 5:39 PM EST
Civil Twilight 6:36 AM EST 6:05 PM EST
Nautical Twilight 6:06 AM EST 6:35 PM EST
Astronomical Twilight 5:37 AM EST 7:05 PM EST
Moon No Moon Rise 12:56 PM EST (11/6)
Length of Visible Light 11h 29m
Length of Day
10h 36m
Waning Gibbous, 53% of the Moon is Illuminated
Nov 6
Waning Gibbous
Nov 6
Last Quarter
Nov 13
New
Nov 20
First Quarter
Nov 28
Full

Hourly Weather History & Observations

Time (EST) Temp. Windchill Dew Point Humidity Pressure Visibility Wind Dir Wind Speed Gust Speed Precip Events Conditions
12:15 AM 50.0 °F - 32.0 °F 50% 29.96 in 10.0 mi ENE 5.8 mph - N/A Rain Light Rain
12:35 AM 50.0 °F - 33.8 °F 54% 29.96 in 10.0 mi East 4.6 mph - N/A   Light Drizzle
12:55 AM 48.2 °F - 35.6 °F 62% 29.96 in 10.0 mi East 4.6 mph - N/A   Light Drizzle
1:15 AM 48.2 °F - 35.6 °F 62% 29.97 in 10.0 mi Calm Calm - N/A   Drizzle
1:35 AM 46.4 °F - 37.4 °F 71% 29.97 in 5.0 mi Calm Calm - N/A Rain Rain
1:55 AM 46.4 °F 44.3 °F 39.2 °F 76% 29.98 in 3.0 mi ENE 4.6 mph - N/A Rain Rain
2:15 AM 46.4 °F 44.3 °F 41.0 °F 81% 29.97 in 5.0 mi ENE 4.6 mph - N/A Rain Rain
2:35 AM 46.4 °F 43.5 °F 41.0 °F 81% 29.96 in 4.0 mi ENE 5.8 mph - N/A Rain Rain
2:55 AM 46.4 °F 42.9 °F 41.0 °F 81% 29.95 in 3.0 mi ENE 6.9 mph - N/A Rain Heavy Rain
3:15 AM 46.4 °F 44.3 °F 41.0 °F 81% 29.94 in 4.0 mi ENE 4.6 mph - N/A Rain Rain
3:35 AM 46.4 °F 42.4 °F 41.0 °F 81% 29.94 in 5.0 mi ENE 8.1 mph - N/A Rain Light Rain
3:55 AM 46.4 °F 42.9 °F 41.0 °F 81% 29.94 in 5.0 mi ENE 6.9 mph - N/A Rain Light Rain
4:15 AM 46.4 °F 43.5 °F 41.0 °F 81% 29.94 in 3.0 mi ENE 5.8 mph - N/A Rain Rain
4:35 AM 46.4 °F 42.9 °F 41.0 °F 81% 29.94 in 2.5 mi ENE 6.9 mph - N/A Rain Rain
4:55 AM 44.6 °F 39.7 °F 41.0 °F 87% 29.94 in 3.0 mi ENE 9.2 mph - N/A Rain Rain
5:15 AM 44.6 °F 39.2 °F 41.0 °F 87% 29.94 in 5.0 mi ENE 10.4 mph - N/A   Light Drizzle
5:35 AM 44.6 °F 40.2 °F 41.0 °F 87% 29.95 in 7.0 mi East 8.1 mph - N/A   Overcast
5:55 AM 44.6 °F 38.8 °F 41.0 °F 87% 29.95 in 5.0 mi ENE 11.5 mph 16.1 mph N/A Rain Light Rain
6:15 AM 44.6 °F 38.4 °F 39.2 °F 81% 29.95 in 7.0 mi ENE 12.7 mph 20.7 mph N/A   Overcast
6:35 AM 44.6 °F 37.8 °F 37.4 °F 76% 29.96 in 10.0 mi East 15.0 mph 23.0 mph N/A   Overcast
6:55 AM 44.6 °F 39.2 °F 37.4 °F 76% 29.96 in 7.0 mi ENE 10.4 mph 17.3 mph N/A   Drizzle
7:15 AM 42.8 °F 36.6 °F 37.4 °F 81% 29.97 in 7.0 mi ENE 11.5 mph 16.1 mph N/A   Light Drizzle
7:35 AM 42.8 °F 38.6 °F 37.4 °F 81% 29.98 in 5.0 mi East 6.9 mph 16.1 mph N/A Rain Light Rain
7:55 AM 44.6 °F 39.2 °F 37.4 °F 76% 29.99 in 7.0 mi ENE 10.4 mph 20.7 mph N/A Rain Rain
8:15 AM 44.6 °F 40.2 °F 37.4 °F 76% 29.99 in 5.0 mi ENE 8.1 mph 17.3 mph N/A Rain Light Rain
8:35 AM 44.6 °F 39.7 °F 37.4 °F 76% 30.00 in 7.0 mi ENE 9.2 mph 16.1 mph N/A   Overcast
8:55 AM 44.6 °F 38.4 °F 37.4 °F 76% 30.00 in 7.0 mi East 12.7 mph 17.3 mph N/A   Overcast
9:15 AM 44.6 °F 40.2 °F 37.4 °F 76% 30.01 in 7.0 mi East 8.1 mph - N/A   Overcast
9:35 AM 44.6 °F 40.7 °F 37.4 °F 76% 30.01 in 3.0 mi East 6.9 mph 18.4 mph N/A Rain Light Rain
9:55 AM 44.6 °F 39.2 °F 37.4 °F 76% 30.00 in 5.0 mi ENE 10.4 mph 17.3 mph N/A Rain Rain
10:15 AM 44.6 °F 39.7 °F 39.2 °F 81% 30.00 in 5.0 mi East 9.2 mph 17.3 mph N/A Rain Rain
10:35 AM 44.6 °F 39.2 °F 37.4 °F 76% 29.99 in 5.0 mi East 10.4 mph 19.6 mph N/A Rain Light Rain
10:55 AM 46.4 °F 40.7 °F 37.4 °F 71% 30.00 in 7.0 mi East 12.7 mph 19.6 mph N/A   Mostly Cloudy
11:15 AM 48.2 °F - 35.6 °F 62% 29.99 in 10.0 mi East 10.4 mph 21.9 mph N/A   Mostly Cloudy
11:35 AM 46.4 °F 41.5 °F 33.8 °F 62% 30.00 in 10.0 mi ENE 10.4 mph 18.4 mph N/A   Mostly Cloudy
11:55 AM 46.4 °F 42.4 °F 33.8 °F 62% 30.00 in 10.0 mi ENE 8.1 mph 18.4 mph N/A   Overcast
12:15 PM 48.2 °F - 33.8 °F 58% 29.99 in 10.0 mi East 6.9 mph - N/A   Overcast
12:35 PM 50.0 °F - 33.8 °F 54% 29.98 in 10.0 mi ENE 9.2 mph 16.1 mph N/A   Mostly Cloudy
12:55 PM 51.8 °F - 33.8 °F 50% 29.97 in 10.0 mi ENE 9.2 mph - N/A   Overcast
1:15 PM 50.0 °F - 33.8 °F 54% 29.96 in 10.0 mi ENE 4.6 mph - N/A   Overcast
1:35 PM 50.0 °F - 32.0 °F 50% 29.95 in 10.0 mi East 9.2 mph - N/A   Overcast
1:55 PM 50.0 °F - 32.0 °F 50% 29.94 in 10.0 mi East 5.8 mph - N/A   Mostly Cloudy
2:15 PM 50.0 °F - 32.0 °F 50% 29.94 in 10.0 mi ESE 6.9 mph - N/A   Overcast
2:35 PM 51.8 °F - 32.0 °F 47% 29.93 in 10.0 mi ENE 5.8 mph - N/A   Overcast
2:55 PM 51.8 °F - 32.0 °F 47% 29.93 in 10.0 mi East 4.6 mph - N/A   Overcast
3:15 PM 50.0 °F - 30.2 °F 47% 29.93 in 10.0 mi East 5.8 mph - N/A   Overcast
3:35 PM 50.0 °F - 32.0 °F 50% 29.94 in 10.0 mi East 4.6 mph - N/A   Overcast
3:55 PM 50.0 °F - 32.0 °F 50% 29.95 in 10.0 mi Calm Calm - N/A   Overcast
4:15 PM 50.0 °F - 32.0 °F 50% 29.95 in 10.0 mi Calm Calm - N/A   Overcast
4:35 PM 50.0 °F - 33.8 °F 54% 29.96 in 10.0 mi Calm Calm - N/A   Overcast
4:55 PM 50.0 °F - 32.0 °F 50% 29.95 in 10.0 mi Calm Calm - N/A   Overcast
5:15 PM 50.0 °F - 32.0 °F 50% 29.95 in 10.0 mi Calm Calm - N/A   Overcast
5:35 PM 50.0 °F - 32.0 °F 50% 29.94 in 10.0 mi Calm Calm - N/A   Overcast
5:55 PM 48.2 °F - 32.0 °F 54% 29.94 in 10.0 mi Calm Calm - N/A   Overcast
6:35 PM 46.4 °F - 33.8 °F 62% 29.94 in 10.0 mi Calm Calm - N/A   Overcast
6:55 PM 46.4 °F - 35.6 °F 66% 29.95 in 10.0 mi Calm Calm - N/A   Overcast
7:15 PM 46.4 °F - 37.4 °F 71% 29.95 in 10.0 mi Calm Calm - N/A   Overcast
7:35 PM 46.4 °F - 37.4 °F 71% 29.96 in 10.0 mi Calm Calm - N/A   Overcast
7:55 PM 46.4 °F - 37.4 °F 71% 29.96 in 10.0 mi Calm Calm - N/A   Overcast
8:15 PM 46.4 °F - 37.4 °F 71% 29.97 in 10.0 mi Calm Calm - N/A   Overcast
8:35 PM 46.4 °F - 37.4 °F 71% 29.98 in 10.0 mi Calm Calm - N/A   Overcast
8:55 PM 46.4 °F 45.2 °F 37.4 °F 71% 29.98 in 10.0 mi NW 3.5 mph - N/A   Overcast
9:15 PM 46.4 °F - 37.4 °F 71% 29.98 in 10.0 mi Calm Calm - N/A   Overcast
9:35 PM 46.4 °F - 37.4 °F 71% 29.98 in 10.0 mi Calm Calm - N/A   Overcast
9:55 PM 46.4 °F - 35.6 °F 66% 29.97 in 10.0 mi Calm Calm - N/A   Overcast
10:15 PM 46.4 °F - 35.6 °F 66% 29.97 in 10.0 mi Calm Calm - N/A   Overcast
10:35 PM 46.4 °F - 35.6 °F 66% 29.97 in 10.0 mi Calm Calm - N/A   Overcast
10:55 PM 46.4 °F - 35.6 °F 66% 29.96 in 10.0 mi Calm Calm - N/A   Overcast
11:15 PM 46.4 °F - 37.4 °F 71% 29.95 in 10.0 mi Calm Calm - N/A   Overcast
11:35 PM 46.4 °F - 37.4 °F 71% 29.95 in 10.0 mi Calm Calm - N/A   Light Drizzle
11:55 PM 46.4 °F - 37.4 °F 71% 29.95 in 7.0 mi Calm Calm - N/A Rain Light Rain